www.pogodaiklimat.ru

Погода и климат >> Архив погоды >> Россия >> Коми >> Окунев Нос


ПОГОДА в Окуневом Носу

  • Прогноз погоды в Окуневом Носу
  • Монитор погоды в Окуневом Носу

АРХИВ ПОГОДЫ в Окуневом Носу

Время (UTC), дата Ветер
(напр.,м/с)
 
Видим.   Явления Облачность Т
(С)
Тd
(С)
f
(%)
Тe
(С)
Тes
(С)
Комфортность P
(гПа)
Po
(гПа)
Тmin
(С)
Tmax
(С)
R
(мм)
R24
(мм)
S
(см)
00 17.05 ЮЗ 3 50 км {дождь} 9/9 1050 м
[Sc Ac trans]
+1.5 -0.6 86 -3 -3 1012.5 1009.8
03 17.05 ЮЗ 4 50 км в посл. час дождь 9/6 900 м
[Sc Ac As]
+2.0 +0.7 91 -3 -3 1010.1 1007.3 +0.7 0.3
06 17.05 С 4 30 км слаб. ливневой дождь 9/9 600 м
[Cb calv]
+2.7 +1.4 91 -2 -2 1009.3 1006.6
09 17.05 С 5 29 км слаб. ливневой дождь 10/8 700 м
[Cb calv Ac As]
+2.8 +1.2 89 -3 -2 1009.4 1006.7
12 17.05 С 3
{10}
22 км слаб. ливневой снег 10/10 420 м
[Cb calv]
+2.3 +1.3 93 -2 -2 1010.2 1007.4
15 17.05 СЗ 3 50 км {ливн. осадки} 9/5 1000 м
[Cu med, cong Ac trans Ci fib]
+2.3 +0.3 87 -2 -2 1010.1 1007.4 +4.8 3
18 17.05 З 2 50 км {ливн. осадки} 9/5 1000 м
[Cu Sc Ac lent]
+0.9 +0.2 95 -3 -3 1009.2 1006.5
00 18.05 СЗ 3 9000 м слаб. снег 9/9 360 м
[Sc Ac As]
-0.2 -0.6 97 -5 -5 1007.1 1004.3
03 18.05 СЗ 3 50 км {снег} 10/10 360 м
[Sc]
+0.5 +0.2 98 -4 -4 1006.5 1003.8 -0.2 0.5
06 18.05 С 5 9000 м слаб. ливневой снег 10/10 360 м
[Cb calv]
+1.3 +0.5 94 -5 -5 1006.5 1003.8
09 18.05 С 8-13
{14}
15 км слаб. ливневой снег 10/10 570 м
[Cb calv]
+2.0 -0.1 86 -5 -5 1006.5 1003.8
12 18.05 С 6-10
{14}
6000 м слаб. ливневой снег 10/10 500 м
[Cb calv]
+1.2 0.0 92 -5 -5 1007.0 1004.3
15 18.05 С 6-11
{14}
15 км слаб. ливневой дождь 10/10 500 м
[Cb calv]
+1.7 +0.6 92 -5 -5 1007.3 1004.6 +2.2 0.9
18 18.05 С 6
{12}
14 км слаб. ливневой дождь со снегом 10/10 480 м
[Cb calv]
+0.8 -0.1 94 -6 -6 1007.9 1005.1
00 19.05 С 4 50 км {ливн. осадки} 10/10 360 м
[Sc]
+1.3 +0.4 94 -4 -4 1009.9 1007.2
03 19.05 С 6
{10}
50 км 10/10 360 м
[Sc]
+1.5 +0.5 93 -5 -5 1011.5 1008.7 +0.6 0.4
06 19.05 С 7-10
{11}
50 км 9/9 480 м
[Sc]
+2.5 +0.5 87 -4 -4 1013.3 1010.5
09 19.05 С 6
{12}
50 км 5/0
[Ac trans Cs]
+4.7 +0.8 76 -0 +3 1014.8 1012.1
12 19.05 С 6-10
{11}
50 км 3/0
[Ac trans]
+7.1 +1.4 67 +3 +5 1015.4 1012.7
15 19.05 С 6
{10}
50 км 3/0
[Ac trans Ci fib]
+8.1 -0.4 55 +4 +5 1016.1 1013.3 +8.9
18 19.05 С 4 50 км 1/0
[Ac trans]
+4.3 -0.3 72 0 0 1016.7 1013.9
00 20.05 С 6-11
{11}
50 км 3/3 1000 м
[Sc]
-0.6 -2.5 87 -7 -7 1018.1 1015.3
03 20.05 С 6-11
{11}
50 км 5/5 1000 м
[Sc]
-0.1 -3.4 78 -7 -6 1019.0 1016.2 -0.8
06 20.05 С 7-10
{11}
50 км 5/3 1000 м
[Cu med, cong Ac trans]
+0.9 -3.7 71 -6 -4 1019.4 1016.6
09 20.05 С 6
{11}
50 км 3/3 1500 м
[Cu med, cong Cs]
+3.0 -3.6 62 -2 +1 1020.0 1017.2
12 20.05 С 6
{10}
50 км 1/0
[Ac trans]
+5.1 -3.7 53 +1 +3 1020.1 1017.3
15 20.05 С 5
{10}
50 км 1/0
[Ac trans]
+4.6 -3.7 55 0 +1 1019.9 1017.1 +5.2
18 20.05 С 3 50 км 3/0
[Ci fib]
+1.6 -4.3 65 -2 -2 1019.7 1017.0
00 21.05 СВ 3 50 км 8/0
[Ac As Ci fib]
-2.2 -4.3 85 -7 -7 1019.9 1017.1
03 21.05 С 5 50 км 10/10 420 м
[Sc]
-1.8 -4.4 82 -8 -8 1020.2 1017.4 -2.3
06 21.05 С 4 50 км 9/5 600 м
[Sc Ci]
+0.4 -3.9 73 -5 -2 1020.3 1017.5
09 21.05 С 5 50 км 9/0
[Ac lent Cs]
+3.4 -3.7 60 -1 +2 1019.8 1017.0
12 21.05 С 4 50 км 9/3 1500 м
[Cu hum Cs]
+5.5 -5.5 45 +2 +5 1019.1 1016.3
15 21.05 С 4 50 км 4/1 1500 м
[Cu hum Ci fib]
+5.2 -3.1 55 +2 +3 1018.1 1015.3 +5.8
18 21.05 С 3 50 км 9/0
[Ac trans Cs]
+2.9 -4.8 57 -1 -1 1017.5 1014.7
00 22.05 С 2 50 км 4/0
[Ac trans Cs]
-2.7 -4.2 89 -7 -7 1017.0 1014.2
03 22.05 В 2 50 км 3/0
[Ac trans]
+0.3 -4.9 68 -3 -0 1015.8 1013.0 -2.9
06 22.05 ЮЗ 2 50 км 9/0
[Ac trans Ci fib]
+3.1 -4.6 57 +1 +5 1014.3 1011.6
09 22.05 З 2 50 км 10/0
[Ac As Cs]
+5.4 -4.2 50 +4 +10 1012.2 1009.5
12 22.05 Ю 3 50 км 10/0
[Ac As]
+5.0 -3.4 55 +2 +4 1010.7 1007.9
15 22.05 ЮВ 3 28 км слаб. дождь 10/6 540 м
[Sc Ac As]
+2.9 +0.9 87 -1 -1 1008.5 1005.7 +6.1 0.1
18 22.05 В 3 7000 м слаб. дождь 10/10 700 м
[Sc]
+1.4 +0.5 94 -3 -3 1006.3 1003.6
00 23.05 СВ 4 3600 м снег 10/0 270 м
[As op]
-0.7 -0.8 99 -7 -7 1004.9 1002.1
03 23.05 С 3 8000 м слаб. снег 10/10 450 м
[Sc]
-0.2 -0.4 99 -5 -5 1005.2 1002.4 -0.8 10 8
06 23.05 СЗ 5
{10}
15 км слаб. снег 10/10 420 м
[Sc]
+0.5 -0.2 95 -6 -6 1005.3 1002.6
09 23.05 С 4 50 км в посл. час ливневой снег 9/8 1080 м
[Cu med, cong Ac trans]
+1.7 -2.0 76 -3 -2 1006.0 1003.2
12 23.05 С 5 50 км {ливн. осадки, снег} 8/3 1000 м
[Cu hum Ac trans Ci fib]
+2.6 -2.7 68 -2 -1 1006.2 1003.4
15 23.05 С 5 50 км 8/3 1000 м
[Cu hum Ac trans Ci fib]
+2.3 -4.0 63 -3 -2 1005.9 1003.2 +3.0 0.5
18 23.05 С 4 50 км 9/5 1000 м
[Sc diur, vesp Ac As]
+0.5 -5.1 66 -4 -4 1006.6 1003.8

 

Местоположение метеостанции Окунев Нос (Коми, Россия): широта 66.25 долгота 52.58 высота над уровнем моря 20 м.

В архиве по умолчанию представлена погода в Окуневом Носу за последнюю неделю. Архивные данные за месяц целиком и за предыдущие месяцы, начиная с января 2011 года, Вы можете получить, выбрав интересующий диапазон дат из раскрывающегося списка и нажав кнопку "Ввод!".


*Определитесь, кто Вы:
робот инопланетянин человек

Внимание! Время в таблицах - всемирное. Для получения местного времени необходимо прибавить поправку, которая равна 3 ч.

Смотрите также архив погоды в соседних городах и на ближайших метеорологических станциях:

Погода в Усть-Цильме (Коми, Россия) (92 км)
Погода в Коткино (Ненецкий АО, Россия) (108 км)
Погода в Мутном Материке (Коми, Россия) (121 км)
Погода в Ижме (Коми, Россия) (152 км)
Погода в Нарьян-Маре (Ненецкий АО, Россия) (155 км)
Погода в Усть-Усе (Коми, Россия) (198 км)
Погода в Усинске (Коми, Россия) (217 км)
Погода в Нижней Пеше (Ненецкий АО, Россия) (220 км)
Погода в Кедва-Воме (Коми, Россия) (230 км)
Погода в Ираеле (Коми, Россия) (233 км)

Пояснения к столбцам:

Ветер - указаны скорость ветра в м/с - средняя за 10 мин, порывы в срок и между сроками (в фигурных скобках) и направление, откуда дует ветер: С - северный, СВ - северо-восточный, В - восточный, ЮВ - юго-восточный, Ю - южный, ЮЗ - юго-западный, З - западный, СЗ - северо-западный.
Видимость - горизонтальная дальность видимости в метрах или километрах. При видимости от 1 до 10 км при отсутствии осадков обычно наблюдается дымка, при ухудшении видимости до 1 км и менее - туман. В сухую погоду видимость может ухудшаться дымом, пылью или мглою.
Явления - указаны атмосферные явления, наблюдавшиеся в срок или в последний час перед сроком; фигурными скобками обозначены явления, наблюдавшиеся между сроками (за 1-3 часа до срока); квадратными скобками обозначены град или гололедные отложения с указанием их диаметра в мм.
Облачность - указаны через наклонную черту общая и нижняя облачность в баллах и высота нижней границы облаков в метрах; квадратными скобками обозначены формы облаков: Ci - перистые, Cs - перисто-слоистые, Cc - перисто-кучевые, Ac - высококучевые, As - высокослоистые, Sc - слоисто-кучевые, Ns - слоисто-дождевые, Cu - кучевые, Cb - кучево-дождевые. Подробнее классификацию облаков см. в Атласе облаков (PDF).
T - Температура воздуха - температура, измеренная на высоте 2 м над землей.
Td - Температура точки росы - температура, при понижении до которой содержащийся в воздухе водяной пар достигнет насыщения.
f - Относительная влажность воздуха - влажноcть воздуха, измеренная на высоте 2 м над землей.
Te - Эффективная температура - температура, которую ощущает одетый по сезону человек в тени. Характеристика душности погоды. При расчете учитывается влияние влажности воздуха и скорости ветра на теплоощущения человека.
Tes - Эффективная температура на солнце - температура, которую ощущает человек, с поправкой на солнечный нагрев. Характеристика знойности погоды. Зависит от высоты солнца над горизонтом, облачности и скорости ветра. Ночью, в пасмурную погоду, а также при ветре 12 м/с и более поправка равна нулю.
P - Атмосферное давление - приведенное к уровню моря атмосферное давление.
Po - Атмосферное давление - измеренное на уровне метеостанции атмосферное давление.
Tmin - Минимальная температура - минимум температуры воздуха на высоте 2 м над землей.
Tmax - Максимальная температура - максимум температуры воздуха на высоте 2 м над землей.
R - Количество осадков - Количество выпавших осадков за период времени, мм. При наведении курсора мыши на число - период времени, за который выпало указанное количество осадков.
R24 - Количество осадков - Количество выпавших осадков за 24 часа, мм.
S - Снежный покров - Высота снежного покрова, см. При наведении курсора мыши на число - состояние снежного покрова и степень покрытия местности в баллах.